Terug naar catalogus

FENGYUN 1C DEB

ActiefSSO
NORAD 30755·DEBRIS·🇨🇳 China

Gelanceerd May 10, 1999 vanaf Taiyuan Satellite Launch Center

Loading…

Volgende Passages (komende 24 uur)

TLE

VersSource: Space-Track

Epoch: Sep 13, 2026, 21:49 UTC

1 30755U 99025ATR 26256.90968950  .00000854  00000-0  22027-3 0  9995
2 30755  98.2750 249.4979 0150254 151.2546 277.5566 14.45984053 24061

Volg FENGYUN 1C DEB in realtime met AllMySat

Download on the App Store